Simultaneous Nadir Overpasses (SNOs) Predictions

Prediction of SNOs near US between AQUA and NPP Satellite Orbit:

Table of predicted SNOs near US for the next 10.0 days since TLE Epoch: 2/22/2014
Index Date (AQUA) Time (AQUA) AQUA Lat,Lon Date (NPP) Time (NPP) NPP Lat,Lon Distance(km) Time Diff (sec)
1 02/22/2014 19:07:10 49.98, -92.63 02/22/2014 19:04:41 49.65, -94.49 138.23 149
2 02/22/2014 20:45:58 49.68,-117.23 02/22/2014 20:46:03 49.19,-119.66 184.25 5
3 02/25/2014 08:34:02 26.55,-100.36 02/25/2014 08:27:37 26.55,-100.39 2.84 385
4 02/25/2014 10:10:17 36.04,-122.54 02/25/2014 10:06:23 36.12,-123.05 46.40 234
5 02/28/2014 07:19:29 49.90, -76.01 02/28/2014 07:23:44 50.31, -78.14 158.61 255
6 02/28/2014 08:58:22 49.90,-100.73 02/28/2014 09:05:12 50.42,-103.46 203.13 410
7 03/02/2014 18:17:35 49.95, -80.21 03/02/2014 18:14:02 49.67, -81.79 117.61 213
8 03/02/2014 19:56:28 49.95,-104.93 03/02/2014 19:55:30 49.56,-107.12 162.89 58
9 03/02/2014 21:30:08 31.26,-123.51 03/02/2014 21:31:36 30.76,-126.00 244.49 88




NCC Satellite Simultaneous Nadir Overpasses (SNOs) Prediction Service
